RH
67 61 58 52 44 40 42 58 61 59 51 35 36 39 38 41 40 36 27 25 26 25 20 18 15 20 18 19 20 22 24 25 25 27 26 26 23 22 20 19 19 20 21 20
58 68 71 67 54 46 43 39 66 63 55 59 40 33 39 38 40 43 41 31 26 24 27 26 21 18 20 26 23 26 25 26 26 26 25 24 23 20 19 19 19 21 21 24
74 65 61 66 69 52 55 51 45 59 68 54 59 52 37 36 41 44 40 45 41 31 29 26 26 27 25 24 31 32 31 29 28 26 25 24 23 22 23 24 25 27 29 31
84 86 82 68 59 68 46 59 51 45 50 61 60 57 58 46 40 45 48 48 48 46 44 33 29 30 27 26 30 33 44 51 47 38 35 34 32 31 32 33 34 34 36 36
82 91 83 65 54 62 67 49 41 49 50 51 57 56 53 55 54 49 44 51 58 59 55 52 53 40 33 35 29 26 27 35 38 40 42 43 42 41 39 38 35 39 39 38
86 89 82 62 56 55 55 62 39 38 40 48 51 56 57 52 52 55 56 51 51 46 48 54 56 60 57 49 46 44 42 36 27 27 26 31 31 28 26 27 29 29 30 32
80 94 93 79 71 65 68 68 60 53 47 49 58 51 57 60 60 56 53 58 66 68 70 65 61 51 56 58 61 62 63 60 55 53 50 46 45 44 47 48 48 49 52 53
83 97 100 88 83 71 71 84 71 68 64 66 68 67 68 69 69 72 66 58 57 62 68 61 54 55 63 65 61 58 60 70 65 68 73 69 79 76 75 69 49 57 62 63
73 82 100 100 85 86 79 83 93 85 76 68 62 53 58 69 96 97 93 84 79 80 65 52 55 58 53 51 48 52 61 68 75 94 90 82 84 85 81 76 74 78 68 59
79 90 96 96 100 91 82 77 77 82 86 77 79 87 88 91 93 92 88 85 66 56 60 52 63 69 69 69 69 75 64 70 74 72 55 46 44 46 70 88 79 87 80 80
83 90 81 87 100 100 100 86 91 83 85 91 82 77 77 98 98 84 93 98 89 76 75 87 94 97 83 77 85 89 100 99 90 75 71 74 71 60 63 56 61 66 70 61
100 100 97 92 95 100 100 99 93 91 85 80 90 88 92 100 100 93 99 100 100 100 100 100 100 100 96 95 94 88 85 70 59 61 72 71 67 71 74 69 64 59 53 47
100 100 100 100 100 95 96 95 92 83 84 85 99 100 97 100 100 100 100 100 100 100 100 100 100 100 98 97 91 88 90 83 86 83 81 72 64 62 63 62 58 58 58 52
100 100 100 100 100 100 100 98 98 92 87 82 96 100 100 96 96 100 95 87 90 86 80 90 87 89 86 94 95 100 88 75 70 77 85 82 70 57 47 42 41 38 33 30
100 100 100 100 100 100 100 100 100 93 88 86 93 98 97 93 98 100 100 97 92 89 83 82 74 74 72 87 92 94 66 54 53 63 61 55 52 48 45 42 38 33 31 30
100 100 100 100 100 100 100 100 100 100 100 100 100 98 100 97 100 100 100 100 100 98 100 96 83 86 86 89 80 70 58 62 56 49 46 43 39 40 36 34 31 25 24 25
100 100 100 100 100 100 100 100 100 100 100 100 100 100 100 100 100 100 100 99 82 73 75 64 58 81 95 95 87 84 55 55 50 47 41 43 41 37 35 33 30 23 22 23
100 100 100 100 100 100 100 100 100 100 100 100 100 100 100 100 100 100 100 95 93 72 63 79 75 73 69 61 67 82 64 52 45 42 44 40 41 33 30 31 34 30 31 23
94 78 89 100 100 100 100 100 100 100 100 100 100 100 100 100 100 100 100 81 72 73 90 97 99 100 97 73 71 61 54 46 43 44 40 38 34 40 43 37 36 42 35 23
95 76 88 98 100 100 100 100 100 100 88 90 95 100 100 100 100 100 100 100 84 72 89 96 100 100 78 57 49 50 53 47 47 43 44 50 55 53 46 32 36 38 30 27
69 62 82 78 70 87 69 76 67 76 89 81 86 97 100 100 100 100 100 88 69 65 66 91 98 99 92 75 62 59 53 52 53 56 62 64 67 57 36 31 36 31 28 29
92 88 75 72 81 81 77 72 75 64 72 80 80 100 100 100 95 92 83 84 83 76 84 89 90 100 94 73 80 69 67 67 60 64 66 71 61 30 28 32 30 28 26 27
100 95 82 77 90 74 69 94 78 87 96 100 100 100 100 97 79 81 98 89 79 70 72 81 96 100 91 75 65 60 66 61 62 62 70 78 29 25 27 28 24 24 27 26
100 100 100 98 99 98 85 79 100 100 97 99 97 99 100 100 97 85 85 86 78 76 88 100 99 84 80 81 80 73 65 62 58 63 58 39 23 25 28 28 22 22 29 27
96 100 100 100 100 100 100 100 100 94 99 97 94 93 97 100 96 94 86 79 81 75 100 100 94 83 75 67 60 51 53 50 45 36 33 25 20 22 25 23 20 21 26 28
83 84 96 100 98 100 100 99 100 99 99 100 100 95 92 98 79 79 79 79 88 100 95 76 70 59 43 37 39 47 50 42 31 24 19 18 18 22 23 18 16 20 24 25
27 28 28 32 45 52 47 48 50 53 60 66 64 68 81 73 58 60 63 90 100 89 82 63 42 33 29 31 41 37 24 21 18 17 18 19 20 20 19 17 17 20 21 20
Wind_Speed
15 14 16 21 24 26 29 32 35 38 42 46 50 54 58 61 64 69 72 77 72 67 60 52 43 33 21 19 25 34 44 53 59 62 64 64 63 62 60 60 60 59 56 55
15 16 16 21 22 22 24 27 29 32 35 39 42 45 48 52 56 59 62 64 69 71 67 60 53 43 36 20 17 25 33 43 48 53 56 58 59 60 58 56 53 52 51 57
17 17 19 22 19 21 20 23 23 26 28 32 34 37 41 43 46 50 53 53 56 58 60 62 61 54 44 35 27 13 18 23 33 39 44 47 49 50 50 50 52 52 57 62
21 19 20 20 17 17 20 20 22 22 24 25 27 29 32 35 38 40 42 44 45 47 49 48 50 50 50 47 39 29 21 16 22 30 36 41 45 46 48 51 54 57 63 63
27 23 19 18 17 17 18 17 20 22 22 23 22 23 24 26 29 30 33 35 36 38 36 38 37 36 37 38 35 34 30 25 17 12 15 21 26 30 33 34 33 36 37 39
30 27 22 20 18 16 18 19 17 17 19 20 20 19 20 21 22 23 25 26 27 27 28 28 29 24 24 24 24 22 20 16 16 12 11 8 8 9 12 15 17 21 24 27
34 28 25 23 21 19 18 18 19 19 18 18 16 18 18 20 20 20 20 20 20 21 21 20 19 18 16 14 12 9 7 6 7 2 4 7 8 13 17 21 23 27 30 36
36 31 30 27 25 23 22 21 21 21 22 21 22 21 22 20 19 20 20 20 19 18 17 18 20 18 16 14 12 9 9 8 10 11 14 17 19 22 26 30 31 35 40 44
41 38 35 33 31 29 28 27 27 26 25 26 26 26 26 24 21 21 21 21 20 19 17 21 29 30 28 21 22 20 20 20 20 22 24 26 30 32 36 39 41 46 49 51
49 44 43 40 38 36 34 32 31 32 32 30 29 29 29 28 25 25 24 22 21 18 20 26 31 32 33 30 30 29 29 29 32 33 35 39 39 41 43 45 49 54 57 59
56 52 49 45 43 42 41 40 38 38 37 36 33 32 34 34 32 32 31 29 28 28 30 33 35 36 34 32 33 34 38 40 42 43 45 46 48 51 54 57 60 63 67 71
62 60 56 54 50 48 47 46 45 43 42 42 38 37 38 41 39 38 37 35 35 35 35 38 38 36 37 42 45 45 48 49 48 52 56 59 60 63 65 68 71 75 81 86
69 66 63 61 59 56 53 52 51 50 48 45 44 44 45 44 43 43 43 42 43 44 44 46 47 46 45 49 48 50 61 62 61 60 63 65 68 71 72 75 79 84 88 91
74 71 69 67 64 63 59 58 58 56 53 51 51 51 52 50 49 50 50 49 49 49 49 51 54 56 57 58 59 67 76 73 73 69 72 74 76 78 82 86 86 88 90 94
79 78 75 73 72 70 67 65 64 62 61 58 57 56 56 56 56 56 57 56 55 56 57 60 61 63 64 64 69 79 82 79 77 76 78 81 82 83 86 90 95 101 100 98
88 86 83 82 79 78 75 74 72 71 66 64 64 64 63 61 62 63 65 65 64 66 66 67 70 75 75 75 77 85 83 83 81 81 85 87 91 91 90 91 93 98 97 91
91 90 89 91 89 87 87 83 80 78 77 72 67 66 67 68 70 72 72 72 73 74 74 74 74 76 82 83 86 86 87 86 85 86 85 83 86 92 93 97 92 91 91 89
99 98 97 94 92 90 91 91 89 87 83 79 76 71 71 76 77 79 81 79 79 79 79 80 83 82 88 90 91 92 90 83 84 83 86 87 90 94 93 92 95 91 85 83
101 106 103 100 96 91 91 96 93 90 84 81 79 80 82 85 87 88 87 85 85 85 84 86 85 88 93 95 95 94 92 90 88 86 86 87 90 90 90 89 88 85 82 80
110 106 106 105 102 98 101 103 97 88 86 82 79 83 89 92 94 91 91 94 94 90 88 90 89 91 97 99 100 96 94 91 89 90 90 88 87 89 88 86 85 82 80 79
116 109 109 109 108 107 110 110 104 94 87 82 81 82 89 92 93 98 102 102 100 97 94 95 92 93 103 101 98 99 97 95 94 94 95 91 91 92 89 86 85 80 80 78
115 116 115 114 115 116 116 112 102 95 89 87 87 94 98 101 103 105 105 105 105 99 94 92 90 101 107 102 103 102 100 100 97 97 95 94 94 88 87 85 84 83 81 79
126 124 122 118 120 119 113 103 98 97 96 95 101 106 105 103 104 106 107 105 101 98 96 95 99 105 102 101 101 101 101 101 99 95 94 95 90 87 85 85 87 85 82 81
127 130 125 122 120 115 108 102 105 108 104 101 101 104 107 108 106 103 105 104 103 103 99 100 106 105 105 104 102 101 101 98 97 94 91 90 90 89 89 90 89 86 84 84
137 136 135 123 116 117 120 119 114 108 106 107 106 107 111 112 110 106 103 104 102 99 106 112 109 107 108 107 105 102 99 96 92 89 89 89 90 91 92 92 89 86 85 87
142 139 134 126 127 128 124 120 117 116 114 115 114 113 112 111 106 103 103 100 99 109 111 106 106 107 105 105 104 101 97 93 89 88 87 88 90 92 91 91 88 87 87 87
123 115 106 106 109 111 111 107 108 109 111 109 110 108 104 106 104 100 100 101 109 108 108 106 103 104 100 99 96 94 91 89 89 89 90 92 93 90 89 88 88 88 89 88
Wind_Direction
312 328 340 347 354 2 8 18 22 22 25 29 34 39 39 40 46 47 53 57 59 63 64 69 81 88 106 143 163 181 190 197 200 204 208 212 216 220 225 230 233 238 245 254
293 307 321 330 336 348 358 5 16 18 20 23 29 35 39 41 43 49 50 54 59 60 63 65 69 76 87 104 148 174 191 200 204 208 213 217 221 225 230 236 243 252 258 262
277 290 306 316 323 337 346 355 4 12 15 19 23 28 34 39 44 45 49 54 57 58 62 65 67 71 75 87 101 137 185 203 213 218 223 228 233 240 245 252 258 262 266 268
270 277 291 299 308 322 341 348 355 359 5 12 16 22 28 34 38 43 47 47 54 58 58 64 67 68 71 75 80 95 124 173 213 228 235 240 246 250 254 258 260 262 265 267
264 270 277 284 299 311 320 333 344 351 355 357 2 12 20 28 33 39 42 45 46 52 55 60 65 69 72 71 76 84 92 100 119 157 200 223 233 240 244 247 249 249 253 257
258 262 261 273 282 297 305 309 326 339 347 351 353 352 358 8 19 27 34 37 41 43 45 49 48 61 72 86 85 83 81 84 104 114 132 139 168 193 215 229 240 252 260 264
253 250 253 262 268 280 289 295 304 314 322 330 335 339 341 347 355 4 11 21 24 25 27 31 36 38 45 48 52 58 77 117 134 176 232 229 249 252 259 257 266 268 267 267
246 252 248 254 260 269 275 280 286 293 301 306 314 317 321 326 332 339 344 348 351 1 5 11 10 5 3 358 347 337 320 300 292 278 275 282 275 274 274 277 278 278 278 277
243 248 248 248 255 261 269 272 275 280 285 292 299 310 314 318 318 323 329 332 334 340 348 346 343 344 339 330 327 317 307 298 288 281 279 281 282 279 277 277 274 273 275 276
247 247 251 253 254 259 267 270 271 277 280 282 286 294 300 302 301 303 307 312 315 319 317 323 326 327 326 318 313 308 301 297 291 286 285 286 282 279 271 270 271 274 275 274
251 250 252 254 257 259 261 270 272 275 275 275 281 286 291 291 289 292 296 299 301 302 306 311 313 314 313 301 296 297 295 295 292 287 284 281 279 280 277 278 276 275 274 275
248 252 253 256 258 259 260 265 269 271 273 273 274 278 282 285 283 284 287 289 294 296 296 301 303 306 309 307 300 297 294 291 287 288 287 284 285 283 281 281 281 279 280 286
246 249 251 254 258 260 263 264 266 269 270 270 272 275 277 281 282 283 286 288 290 291 292 295 297 297 301 301 300 299 298 298 295 295 289 287 287 284 283 284 284 285 286 289
248 250 252 254 255 260 263 264 265 268 272 272 271 272 275 278 278 280 282 284 285 287 291 294 295 294 296 303 303 301 296 296 294 294 293 291 289 288 289 290 292 293 295 295
246 247 251 254 255 258 260 263 265 266 270 271 271 272 272 275 276 277 278 282 284 286 287 290 291 292 294 299 301 300 297 299 295 291 289 290 289 290 289 290 292 294 297 296
250 250 251 253 254 257 257 261 265 264 265 267 271 271 272 273 273 276 280 282 283 287 289 291 293 294 295 296 296 298 300 297 294 291 291 292 291 289 293 294 296 296 297 297
247 250 253 254 256 256 259 262 262 262 263 264 268 271 274 276 276 279 280 282 286 287 289 291 292 294 297 296 296 298 297 294 293 292 291 293 293 294 295 296 296 298 300 296
250 253 256 256 256 257 259 260 263 263 264 267 269 269 271 274 277 276 277 282 287 287 289 289 290 294 296 295 295 294 294 293 292 292 293 294 295 295 296 300 302 300 302 299
251 255 255 255 255 257 259 260 259 262 265 265 269 271 271 276 277 278 281 283 286 286 291 290 288 293 293 290 293 293 293 292 295 298 297 298 299 303 302 302 302 302 303 301
250 254 256 256 256 256 257 258 259 261 264 268 270 274 276 278 279 281 281 283 283 282 285 287 290 292 291 289 289 292 293 295 297 298 301 303 304 303 302 302 303 302 301 300
251 252 254 256 255 257 257 259 259 263 266 269 272 276 275 278 278 278 279 279 281 283 283 284 288 290 289 289 292 295 294 298 299 301 303 304 304 305 303 303 302 300 299 300
249 251 255 255 256 256 256 259 265 267 269 273 273 273 271 272 273 274 276 279 281 282 282 283 287 287 287 291 292 294 294 295 297 300 302 305 305 304 302 302 298 298 299 301
250 253 252 255 253 255 257 263 265 270 270 266 266 268 271 272 274 275 276 277 278 280 284 286 288 286 287 289 289 289 290 293 294 297 301 303 302 302 299 297 297 297 299 300
249 250 251 252 253 258 263 262 261 265 263 265 266 266 267 271 271 272 273 274 278 281 286 288 286 288 289 288 287 287 289 290 293 295 298 299 298 299 297 296 296 298 298 300
246 247 249 252 255 257 259 261 260 262 262 263 264 264 265 268 270 271 272 273 276 283 287 286 284 285 286 286 286 287 287 289 290 294 297 296 296 296 297 296 295 297 298 298
246 247 250 252 253 255 258 260 261 261 261 262 262 263 263 267 268 270 274 275 281 281 281 281 282 283 284 286 286 288 288 288 291 292 292 294 294 293 293 294 295 296 296 298
244 245 247 249 248 251 254 256 257 258 257 258 258 259 262 264 265 270 273 279 278 279 281 280 279 282 283 285 285 287 289 289 290 292 293 293 292 291 292 293 293 294 295 298